Location: Rumah Geringgi
(3.1667°N, 113.1667°E)
Time: 20:15:40
(UTC+00:00)

ARIANE 5 R/B - Pass Details

Date: 03 August 2024
Orbit: 515 x 17426 km, 6.8° (Epoch: 20 September)

Event Time Altitude Azimuth Distance (km) Brightness Sun altitude
Exits shadow 20:35:10 40° 235° (SW) 2,825 4.3 -27.0°
Maximum altitude 20:38:49 54° 185° (S) 1,763 3.6 -26.2°
Drops below altitude 10° 20:43:59 10° 106° (ESE) 2,429 5.3 -25.0°
Sets 20:45:35 0° 100° (E) 3,054 6.0 -24.6°
